sat.trackr.live / text

‹ back to catalog

YAOGAN-16 01C

NORAD 39013 · 2012-066C

PAYLOAD ACTIVE UNKNOWN

§ Identity

Operator
Country
PRC
Launch date
2012-11-25
Launch site
JSC
Launch vehicle
Mass (kg)
RCS (m²)
2.65

External: N2YO · Heavens-Above · Gunter

§ Orbital elements

Epoch: 2026-05-25T03:28:21.885600Z

Period
107.02 min
Inclination
63.3563°
Eccentricity
0.0433951
Mean motion
13.45503541 rev/d
Perigee alt
764.8 km
Apogee alt
1,412.9 km
Semi-major
7,467.0 km
B*
1.2862e-5
RAAN
349.0317°
Arg perigee
26.2721°
Mean anomaly
335.9625°
Rev number
66,303

§ Raw data

YAOGAN-16 01C1 39013U 12066C   26145.14469775 -.00000078  00000+0  12862-4 0  99902 39013  63.3563 349.0317 0433951  26.2721 335.9625 13.45503541663038

JSON: /api/v1/satellites/39013 · /tle

For live sub-satellite position, see the globe view (requires WebGL).

§ Visibility from observer

Set your observer location to see the next 7 days of passes ≥ 10°. The values pass through the URL so the page stays shareable.

No JS? Fill the form by hand. The geolocation button needs JavaScript.